Tracking 18033 objects as of 23-March-2017
HD Live streaming from Space Station
objects crossing your sky now

METEOSAT 3

Track METEOSAT 3 now!
METEOSAT 3 is classified as:


NORAD ID: 19215
Int'l Code: 1988-051A
Perigee: 36,720.5 km
Apogee: 36,784.2 km
Inclination: 16.1 °
Period: 1,485.3 minutes
Semi major axis: 43123 km
RCS: 4.1367 m2 (large)
Launch date: June 15, 1988
Source: European Space Agency (ESA)
Launch site: FRENCH GUIANA (FRGUI)
Your satellite tracking list
Your tracking list is empty





NASA's NSSDC Master Catalog

Two Line Element Set (TLE):
1 19215U 88051A   17080.54798074 -.00000097 +00000-0 +00000-0 0  9997
2 19215 016.0726 009.6568 0007384 287.1306 002.6727 00.96946921090688
Source of the keplerian elements: AFSPC